Regional Weather Roundup
Issued by NWS

Home | Current Version | Previous Version | Graphics & Text | Print | Product List | Glossary On
Versions: 1 2 3 4 5 6 7 8 9 10 11 12 13 14 15 16 17 18 19 20 21 22 23 24 25 26 27 28 29 30 31 32 33 34 35 36 37 38 39 40 41 42 43 44 45 46 47 48 49 50
000
ASUS43 KBIS 231610
RWRND

NORTH DAKOTA REGIONAL WEATHER ROUNDUP
NATIONAL WEATHER SERVICE BISMARCK ND
1100 AM CDT WED JUL 23 2014

NOTE: "FAIR" INDICATES FEW OR NO CLOUDS BELOW 12,000 FEET WITH NO
SIGNIFICANT WEATHER AND/OR OBSTRUCTIONS TO VISIBILITY.


NDZ001>003-009>011-017-231700-
NORTHWEST NORTH DAKOTA

CITY           SKY/WX    TMP DP  RH WIND       PRES   REMARKS
WILLISTON      SUNNY     79  61  53 S8        30.20F
MINOT          CLOUDY    68  63  84 E14       30.27S
MINOT AFB      MOSUNNY   70  67  89 E17       30.26F
$$

NDZ018>021-031>035-040>046-231700-
SOUTHWEST NORTH DAKOTA

CITY           SKY/WX    TMP DP  RH WIND       PRES   REMARKS
BISMARCK       PTSUNNY   74  60  61 SE15      30.27F
DICKINSON      SUNNY     75  62  64 S17       30.23S
GARRISON         N/A     74  65  73 S8        30.25S
HETTINGER ARPT MOSUNNY   74  62  66 SE12      30.25F
$$

NDZ004>008-012>016-024-026-027-054-231700-
NORTHEAST NORTH DAKOTA

CITY           SKY/WX    TMP DP  RH WIND       PRES   REMARKS
GRAND FORKS    PTSUNNY   69  59  70 N7        30.30S
GRND FRKS AFB  PTSUNNY   68  59  74 N8        30.32S
DEVILS LAKE    CLOUDY    66  52  59 E9        30.32R
$$

NDZ022-023-025-028>030-036>039-047>053-231700-
SOUTHEAST NORTH DAKOTA

CITY           SKY/WX    TMP DP  RH WIND       PRES   REMARKS
FARGO          CLOUDY    71  60  68 NE7       30.29F
JAMESTOWN      MOSUNNY   69  60  73 E7        30.31S
$$




USA.gov is the U.S. government's official web portal to all federal, state and local government web resources and services.